CZ-4C DEB

Satellite information

Favourite Embed

Satellite Type and Status

DEBRISIN ORBIT

Key statistics

Satellite CZ-4C DEB at a glance.

Uptime

3986

Days in orbit

Revolutions

≈ 13.4

Per day

Orbit

LEO

Low Earth Orbit

Inclination

63.4

Latest

Satellite identification and parameters

Extended collection of information and parameters for CZ-4C DEB.

Object identification

Identified? True

Debris? True

Object name: CZ-4C DEB

International designator: 2014-047F

Object number (NORAD): 40114

Object ID (CCSDS): 40114

Country: PEOPLES REPUBLIC OF CHINA (PRC)

Current information (Y/N): Y

RCS size: LARGE

Orbital parameters

Period: 107.117 minutes

Inclination: 63.3809 deg

SMA: 7471.333 km

Apoapsis: 1362.539 km

Periapsis: 823.857 km

RAAN: 213.2598 deg

Eccentricy: 0.0360499

Argument of periapsis: 13.356 deg

Mean anomaly: 347.6706 deg

Mean motion: 13.44329098 rev/day

Mean motion (dot): 0.00000027 rev/day2

B* drag term: 0.00013659 1/REarth

Two-line elements (TLE)

Creation date: July 8, 2025, 2:27 a.m.

Reference frame: TEME

Reference center: EARTH

Epoch: July 7, 2025, 6:07 p.m. UTC

TLE line 0: 0 CZ-4C DEB

TLE line 1: 1 40114U 14047F 25188.75543809 .00000027 00000-0 13659-3 0 9997

TLE line 2: 2 40114 63.3809 213.2598 0360499 13.3560 347.6706 13.44329098535605

Live tracking on map

Real-time ground track for satellite CZ-4C DEB.

In-orbit conjunctions

A list of the most updated potential collisions computed for object CZ-4C DEB.

Target Orbit TCA Probability of collision Miss distance Type
SL-16 DEB LEO 2024-09-15 12:03:54 0.0002148202 78.0 (m) DEBRIS
COSMOS 970 DEB LEO 2024-08-08 02:18:02 0.0002231415 89.0 (m) DEBRIS

Associated space launch

CZ-4C DEB was lifted into orbit during the mission ‘Long March 4C | Yaogan 20A, Yaogan 20B, Yaogan 20C’, on board a Long March 4C space rocket.

The launch took place on Aug. 9, 2014, 5:45 a.m. from Launch Area 4 (SLS-2 / 603).

For more information about the launch, click the button.

Launch to space Long March 4C | Yaogan 20A, Yaogan 20B, Yaogan 20C
Long March 4C | Yaogan 20A, Yaogan 20B, Yaogan 20C

Agency: N/A

Status: Launch Successful

Launch date: Aug. 9, 2014, 5:45 a.m. UTC

Rocket: Long March 4C

Launch pad: Launch Area 4 (SLS-2 / 603)

Location: Jiuquan Satellite Launch Center, People's Republic of China

...

Latest news about this satellite

There are no fresh news available about this satellite. Check back as we update our databases every day.


Newsletter sign-up

Weekly statistics, charts and insights to help you stay on top of the space industry.